| time (UTC) | temp C | wind direction | speed KPH | gust KPH | rain 1hr cm | rain 24hr cm | rain mn cm | humidity % | barometer mb |
| 20260905064519 | 25 | 8 | 0.0 | 0.0 | 0.00 | 0.00 | 0.00 | 90 | 1011.7 |
| 20260905063017 | 25 | 8 | 0.0 | 0.0 | 0.00 | 0.00 | 0.00 | 89 | 1011.8 |
| 20260905061515 | 25 | 6 | 0.0 | 0.0 | 0.00 | 0.00 | 0.00 | 87 | 1011.9 |
| 20260905060013 | 25 | 7 | 0.0 | 0.0 | 0.00 | 0.00 | 0.00 | 86 | 1012.0 |
| 20260905054512 | 26 | 7 | 0.0 | 0.0 | 0.00 | 0.00 | 0.00 | 86 | 1012.1 |
| 20260905053012 | 26 | 4 | 0.0 | 1.6 | 0.00 | 0.00 | 0.00 | 87 | 1012.0 |
| 20260905051504 | 26 | 3 | 0.0 | 1.6 | 0.00 | 0.00 | 0.00 | 86 | 1011.9 |
| 20260905050002 | 27 | 115 | 0.0 | 0.0 | 0.00 | 0.00 | 0.00 | 86 | 1011.7 |
| 20260905044600 | 27 | 117 | 0.0 | 0.0 | 0.00 | 0.00 | 0.00 | 84 | 1011.7 |
| 20260905043101 | 27 | 143 | 0.0 | 1.6 | 0.00 | 0.00 | 0.00 | 83 | 1011.6 |
| 20260905041604 | 27 | 128 | 0.0 | 1.6 | 0.00 | 0.00 | 0.00 | 83 | 1011.6 |
| 20260905040101 | 27 | 153 | 0.0 | 3.2 | 0.00 | 0.00 | 0.00 | 82 | 1011.7 |
| 20260905034602 | 27 | 147 | 0.0 | 3.2 | 0.00 | 0.00 | 0.00 | 82 | 1011.8 |
| 20260905033058 | 27 | 155 | 0.0 | 1.6 | 0.00 | 0.00 | 0.00 | 83 | 1012.0 |
| 20260905031558 | 27 | 115 | 0.0 | 0.0 | 0.00 | 0.00 | 0.00 | 84 | 1012.3 |
| 20260905030105 | 27 | 114 | 0.0 | 0.0 | 0.00 | 0.00 | 0.00 | 84 | 1012.4 |
| 20260905024558 | 27 | 116 | 0.0 | 0.0 | 0.00 | 0.00 | 0.00 | 85 | 1012.5 |
| 20260905023056 | 27 | 113 | 0.0 | 0.0 | 0.00 | 0.00 | 0.00 | 84 | 1012.3 |
| 20260905021555 | 27 | 116 | 0.0 | 0.0 | 0.00 | 0.00 | 0.00 | 83 | 1012.2 |
| 20260905020107 | 27 | 115 | 0.0 | 0.0 | 0.00 | 0.00 | 0.00 | 82 | 1011.9 |
| 20260905014555 | 27 | 116 | 0.0 | 0.0 | 0.00 | 0.00 | 0.00 | 81 | 1011.8 |
| 20260905013058 | 28 | 115 | 0.0 | 1.6 | 0.00 | 0.00 | 0.00 | 80 | 1011.5 |
| 20260905011628 | 28 | 173 | 0.0 | 0.0 | 0.00 | 0.00 | 0.00 | 79 | 1011.4 |
| 20260905010052 | 28 | 176 | 0.0 | 0.0 | 0.00 | 0.00 | 0.00 | 78 | 1011.2 |
| 20260905004552 | 28 | 175 | 0.0 | 0.0 | 0.00 | 0.00 | 0.00 | 76 | 1011.0 |
| 20260905003053 | 29 | 174 | 0.0 | 0.0 | 0.00 | 0.00 | 0.00 | 74 | 1011.1 |
| 20260905001557 | 30 | 177 | 0.0 | 1.6 | 0.00 | 0.00 | 0.00 | 71 | 1011.0 |
| 20260905000050 | 30 | 172 | 0.0 | 6.4 | 0.00 | 0.00 | 0.00 | 71 | 1010.8 |
| 20260904234548 | 31 | 158 | 1.6 | 4.8 | 0.00 | 0.00 | 0.00 | 69 | 1010.9 |
| 20260904233047 | 31 | 161 | 0.0 | 8.0 | 0.00 | 0.00 | 0.00 | 66 | 1010.8 |
| 20260904231546 | 32 | 139 | 0.0 | 9.7 | 0.00 | 0.00 | 0.00 | 66 | 1011.1 |
| 20260904230045 | 32 | 198 | 3.2 | 12.9 | 0.00 | 0.00 | 0.00 | 65 | 1011.3 |
| 20260904224547 | 32 | 158 | 3.2 | 11.3 | 0.00 | 0.00 | 0.00 | 62 | 1011.2 |
| 20260904223042 | 33 | 147 | 3.2 | 9.7 | 0.00 | 0.00 | 0.00 | 62 | 1011.2 |
| 20260904221541 | 33 | 176 | 1.6 | 8.0 | 0.00 | 0.00 | 0.00 | 62 | 1011.3 |
| 20260904220039 | 32 | 150 | 4.8 | 12.9 | 0.00 | 0.00 | 0.00 | 61 | 1011.3 |
| 20260904214537 | 32 | 203 | 1.6 | 6.4 | 0.00 | 0.00 | 0.00 | 62 | 1011.2 |
| 20260904213038 | 32 | 136 | 3.2 | 12.9 | 0.00 | 0.00 | 0.00 | 61 | 1011.1 |
| 20260904211536 | 33 | 131 | 4.8 | 11.3 | 0.00 | 0.00 | 0.00 | 60 | 1011.1 |
| 20260904210035 | 32 | 197 | 6.4 | 12.9 | 0.00 | 0.00 | 0.00 | 61 | 1010.9 |
| 20260904204532 | 32 | 165 | 6.4 | 14.5 | 0.00 | 0.00 | 0.00 | 61 | 1011.2 |
| 20260904203030 | 32 | 119 | 4.8 | 9.7 | 0.00 | 0.00 | 0.00 | 61 | 1011.6 |
| 20260904201529 | 32 | 158 | 3.2 | 9.7 | 0.00 | 0.00 | 0.00 | 62 | 1011.8 |
| 20260904200029 | 32 | 145 | 6.4 | 11.3 | 0.00 | 0.00 | 0.00 | 60 | 1012.1 |
| 20260904194526 | 31 | 191 | 3.2 | 11.3 | 0.00 | 0.00 | 0.00 | 61 | 1012.3 |
| 20260904193027 | 31 | 100 | 1.6 | 12.9 | 0.00 | 0.00 | 0.00 | 63 | 1012.6 |
| 20260904191524 | 31 | 110 | 3.2 | 12.9 | 0.00 | 0.00 | 0.00 | 62 | 1012.7 |
| 20260904190022 | 31 | 144 | 4.8 | 9.7 | 0.00 | 0.00 | 0.00 | 61 | 1012.7 |
| 20260904184524 | 31 | 87 | 3.2 | 14.5 | 0.00 | 0.00 | 0.00 | 61 | 1013.1 |
| 20260904183019 | 31 | 75 | 1.6 | 11.3 | 0.00 | 0.00 | 0.00 | 62 | 1013.2 |
| 20260904181539 | 30 | 91 | 1.6 | 6.4 | 0.00 | 0.00 | 0.00 | 64 | 1013.3 |
| 20260904180014 | 30 | 72 | 1.6 | 12.9 | 0.00 | 0.00 | 0.00 | 64 | 1013.5 |
| 20260904174511 | 30 | 59 | 1.6 | 6.4 | 0.00 | 0.00 | 0.00 | 64 | 1014.0 |
| 20260904173017 | 29 | 330 | 1.6 | 12.9 | 0.00 | 0.00 | 0.00 | 65 | 1014.6 |
| 20260904171507 | 28 | 80 | 0.0 | 12.9 | 0.00 | 0.00 | 0.00 | 68 | 1015.1 |
| 20260904170005 | 28 | 89 | 0.0 | 9.7 | 0.00 | 0.00 | 0.00 | 69 | 1015.5 |
| 20260904164505 | 28 | 55 | 0.0 | 6.4 | 0.00 | 0.00 | 0.00 | 71 | 1015.3 |
| 20260904163004 | 27 | 26 | 4.8 | 19.3 | 0.00 | 0.00 | 0.00 | 72 | 1015.4 |
| 20260904161504 | 28 | 23 | 6.4 | 20.9 | 0.00 | 0.00 | 0.00 | 72 | 1015.4 |
| 20260904154557 | 28 | 326 | 1.6 | 16.1 | 0.00 | 0.00 | 0.00 | 75 | 1014.9 |
| 20260904153055 | 28 | 75 | 1.6 | 8.0 | 0.00 | 0.00 | 0.00 | 78 | 1014.4 |
| 20260904151551 | 27 | 37 | 1.6 | 16.1 | 0.00 | 0.00 | 0.00 | 78 | 1014.2 |
| 20260904150050 | 28 | 334 | 0.0 | 14.5 | 0.00 | 0.00 | 0.00 | 78 | 1014.1 |
| 20260904144552 | 27 | 58 | 0.0 | 11.3 | 0.00 | 0.00 | 0.00 | 78 | 1013.7 |
| 20260904143050 | 27 | 19 | 0.0 | 8.0 | 0.00 | 0.00 | 0.00 | 80 | 1013.9 |
| 20260904141550 | 27 | 326 | 0.0 | 4.8 | 0.00 | 0.00 | 0.00 | 78 | 1013.8 |
| 20260904140046 | 27 | 27 | 1.6 | 6.4 | 0.00 | 0.00 | 0.00 | 77 | 1013.7 |
| 20260904134546 | 27 | 33 | 0.0 | 1.6 | 0.00 | 0.00 | 0.00 | 79 | 1013.4 |
| 20260904133037 | 26 | 340 | 0.0 | 1.6 | 0.00 | 0.00 | 0.00 | 78 | 1013.3 |
| 20260904131533 | 26 | 338 | 0.0 | 4.8 | 0.00 | 0.00 | 0.00 | 82 | 1013.4 |
| 20260904130029 | 25 | 352 | 0.0 | 3.2 | 0.00 | 0.00 | 0.00 | 85 | 1013.2 |
| 20260904124526 | 25 | 48 | 0.0 | 1.6 | 0.00 | 0.00 | 0.00 | 87 | 1012.9 |
| 20260904123031 | 24 | 143 | 0.0 | 0.0 | 0.00 | 0.00 | 0.00 | 87 | 1012.5 |
| 20260904121524 | 23 | 143 | 0.0 | 1.6 | 0.00 | 0.00 | 0.00 | 87 | 1012.2 |
| 20260904120031 | 23 | 131 | 0.0 | 0.0 | 0.00 | 0.00 | 0.00 | 87 | 1012.0 |
| 20260904114522 | 24 | 133 | 0.0 | 0.0 | 0.00 | 0.00 | 0.00 | 86 | 1011.8 |
| 20260904113021 | 24 | 135 | 0.0 | 3.2 | 0.00 | 0.00 | 0.00 | 84 | 1011.7 |
| 20260904111521 | 25 | 215 | 0.0 | 6.4 | 0.00 | 0.00 | 0.00 | 84 | 1011.5 |
| 20260904110020 | 25 | 138 | 0.0 | 1.6 | 0.00 | 0.00 | 0.00 | 83 | 1011.5 |
| 20260904104520 | 25 | 119 | 1.6 | 6.4 | 0.00 | 0.00 | 0.00 | 83 | 1011.2 |
| 20260904103024 | 25 | 252 | 0.0 | 9.7 | 0.00 | 0.00 | 0.00 | 83 | 1011.2 |
| 20260904101518 | 25 | 138 | 1.6 | 6.4 | 0.00 | 0.00 | 0.00 | 85 | 1011.1 |
| 20260904100027 | 25 | 148 | 1.6 | 6.4 | 0.00 | 0.00 | 0.00 | 87 | 1011.2 |
| 20260904094513 | 24 | 142 | 3.2 | 8.0 | 0.00 | 0.00 | 0.00 | 90 | 1011.1 |
| 20260904093013 | 23 | 150 | 0.0 | 1.6 | 0.00 | 0.00 | 0.00 | 93 | 1011.6 |
| 20260904091512 | 23 | 139 | 0.0 | 1.6 | 0.00 | 0.00 | 0.00 | 94 | 1011.9 |
| 20260904090010 | 23 | 118 | 0.0 | 0.0 | 0.00 | 0.00 | 0.00 | 94 | 1012.1 |
| 20260904084510 | 23 | 119 | 0.0 | 0.0 | 0.00 | 0.00 | 0.00 | 94 | 1012.1 |
| 20260904083015 | 23 | 117 | 0.0 | 0.0 | 0.00 | 0.00 | 0.00 | 94 | 1012.1 |
| 20260904081508 | 23 | 118 | 0.0 | 0.0 | 0.00 | 0.00 | 0.00 | 93 | 1012.1 |
| 20260904080006 | 23 | 118 | 0.0 | 0.0 | 0.00 | 0.00 | 0.00 | 93 | 1011.7 |
| 20260904074508 | 23 | 119 | 0.0 | 0.0 | 0.00 | 0.00 | 0.00 | 93 | 1011.6 |
| 20260904073005 | 24 | 117 | 0.0 | 0.0 | 0.00 | 0.00 | 0.00 | 93 | 1011.3 |
| 20260904071503 | 24 | 118 | 0.0 | 1.6 | 0.00 | 0.00 | 0.00 | 94 | 1011.3 |
| 20260904070101 | 24 | 25 | 0.0 | 0.0 | 0.00 | 0.00 | 0.00 | 94 | 1011.4 |